Regional Weather Roundup
Issued by NWS

Home | Current Version | Previous Version | Text Only | Print | Product List | Glossary On
Versions: 1 2 3 4 5 6 7 8 9 10 11 12 13 14 15 16 17 18 19 20 21 22 23 24 25 26 27 28 29 30 31 32 33 34 35 36 37 38 39 40 41 42 43 44 45 46 47 48 49 50
000
ASUS43 KDTX 250201
RWRMI
MICHIGAN HOURLY REGIONAL WEATHER ROUNDUP
NATIONAL WEATHER SERVICE DETROIT/PONTIAC MI
1000 PM EDT WED MAY 24 2017

NOTE: "FAIR" INDICATES FEW OR NO CLOUDS BELOW 12,000 FEET WITH NO
SIGNIFICANT WEATHER AND/OR OBSTRUCTION TO VISIBILITY.

MIZ047>049-052>055-059>063-066>070-074>076-081>083-250300-
SOUTHEAST LOWER MICHIGAN

CITY           SKY/WX    TMP DP  RH WIND       PRES   REMARKS
ADRIAN         CLOUDY    58  57  97 E14G21    29.48F
ANN ARBOR      CLOUDY    58  58 100 NE10      29.50S FOG
DETROIT CITY   LGT RAIN  59  58  96 NE10      29.52S
DETROIT        CLOUDY    60  58  92 NE13      29.50F
FLINT          LGT RAIN  59  58  96 NE14      29.55F FOG

CITY           SKY/WX    TMP DP  RH WIND       PRES   REMARKS
JACKSON        RAIN      59  57  93 NE7       29.50F FOG
LANSING        HVY RAIN  60  56  86 NE7       29.55S FOG
LAPEER         NOT AVBL
MT. CLEMENS    LGT RAIN  60  60 100 NE12      29.53F FOG
PONTIAC        LGT RAIN  59  56  89 NE10      29.52F
PORT HOPE        N/A     52  49  89 SE8       29.62R
TRI CITIES     LGT RAIN  54  53  97 NE17      29.60S FOG
MIDLAND        NOT AVBL
$$
MIZ043>046-050>051-056>058-064>065-071>073-077>080-250300-
SOUTHWEST LOWER MICHIGAN

CITY           SKY/WX    TMP DP  RH WIND       PRES   REMARKS
BATTLE CREEK   LGT RAIN  58  57  97 NE10      29.51F
BENTON HARBOR  CLOUDY    60  57  89 NE5       29.51F
HOLLAND        CLOUDY    61  57  87 NE6       29.54F
GRAND RAPIDS   CLOUDY    59  56  89 NE14      29.54F
KALAMAZOO      LGT RAIN  59  55  87 N8        29.51F FOG
MUSKEGON       CLOUDY    64  54  69 NE8       29.56S
$$
MIZ016>042-250300-
NORTHERN LOWER MICHIGAN

CITY           SKY/WX    TMP DP  RH WIND       PRES   REMARKS
ALPENA         CLOUDY    58  52  80 NE9       29.67F
GAYLORD        CLOUDY    56  48  74 NE10      29.68R
HOUGHTON LAKE  CLOUDY    57  49  74 NE9       29.64S
MANISTEE       CLOUDY    60  53  77 NE12      29.61S
PELLSTON       CLOUDY    55  50  83 NE5       29.71S
TRAVERSE CITY  CLOUDY    53  49  86 NE7       29.64S
$$
MIZ007>008-015-250300-
EASTERN UPPER MICHIGAN

CITY           SKY/WX    TMP DP  RH WIND       PRES   REMARKS
KINROSS        CLOUDY    55  50  83 N7        29.73S
S. S. MARIE    CLOUDY    58  50  75 NE5       29.72S
MUNISING         N/A     43  41  93 NW8       29.75S
$$
MIZ004>006-011>014-085-250300-
CENTRAL UPPER MICHIGAN

CITY           SKY/WX    TMP DP  RH WIND       PRES   REMARKS
ESCANABA       CLOUDY    52  48  86 N5        29.72S
MENOMINEE      CLOUDY    52  49  89 NE6       29.71F
SAWYER-GWINN   MOCLDY    45  41  87 N9        29.75S
$$
MIZ001>003-009>011-084-250300-
WESTERN UPPER MICHIGAN

CITY           SKY/WX    TMP DP  RH WIND       PRES   REMARKS
IRON MOUNTAIN  CLOUDY    53  45  74 NE3       29.72S
HOUGHTON       CLOUDY    47  42  83 CALM      29.77R
COPPER HARBOR    N/A     47  42  83 CALM      29.77S
$$

ABBREVIATIONS USED IN REMARKS
   TC - TEMPERATURE IN CELSIUS
  WCI - WIND CHILL INDEX
   HX - HEAT INDEX
  VSB - VISIBILITY





USA.gov is the U.S. government's official web portal to all federal, state and local government web resources and services.